Location: Potomac
(46.8816°N, 113.5795°W)
Time: 21:50:54
(UTC+00:00)

Envisat - Visible Passes

Search period start: 21 January 2022 00:00
Search period end: 31 January 2022 00:00
Orbit: 764 x 766 km, 98.2° (Epoch: 21 January)

Date Brightness Start Highest point End Pass type
(mag) Time Alt. Az. Time Alt. Az. Time Alt. Az.
21 Jan 3.1 12:27:22 10° NNE 12:32:28 72° ESE 12:37:32 10° S visible
21 Jan 4.3 14:07:32 10° NNW 14:10:56 18° WNW 14:14:19 10° W visible
22 Jan 4.5 11:50:49 10° NNE 11:55:26 34° E 12:00:02 10° SSE visible
22 Jan 3.5 13:29:52 10° N 13:34:26 34° WNW 13:38:59 10° SW visible
23 Jan 5.6 11:15:00 10° NE 11:18:12 17° E 11:21:23 10° SE visible
23 Jan 2.8 12:52:40 10° N 12:57:44 70° WNW 13:02:46 10° SSW visible
23 Jan 4.8 14:34:10 10° NW 14:35:50 12° NW 14:37:30 10° WNW visible
24 Jan 3.5 12:15:49 10° NNE 12:20:51 57° E 12:25:50 10° S visible
24 Jan 4.1 13:55:38 10° NNW 13:59:28 22° WNW 14:03:18 10° WSW visible
25 Jan 6.3 01:16:29 10° WSW 01:18:00 11° W 01:19:32 10° WNW visible
25 Jan 4.9 11:39:25 10° NE 11:43:46 27° E 11:48:04 10° SSE visible
25 Jan 3.3 13:18:07 10° N 13:22:55 42° WNW 13:27:40 10° SW visible
26 Jan 5.8 11:04:07 10° ENE 11:06:28 13° E 11:08:47 10° ESE visible
26 Jan 2.9 12:41:02 10° NNE 12:46:10 86° WNW 12:51:15 10° SSW visible
26 Jan 4.6 14:21:49 10° NNW 14:24:25 14° NW 14:27:01 10° W visible
27 Jan 4.0 12:04:19 10° NNE 12:09:12 45° E 12:14:04 10° S visible
27 Jan 3.9 13:43:47 10° N 13:48:00 27° WNW 13:52:11 10° WSW visible
28 Jan 6.0 01:03:31 10° WSW 01:06:15 14° W 01:08:59 10° NW visible
28 Jan 5.2 11:28:07 10° NE 11:32:03 22° E 11:35:57 10° SE visible
28 Jan 3.1 13:06:26 10° N 13:11:22 53° WNW 13:16:17 10° SW visible
29 Jan 6.1 10:54:29 10° E 10:54:41 10° E 10:54:53 10° E visible
29 Jan 3.1 12:29:26 10° NNE 12:34:33 76° ESE 12:39:38 10° S visible
29 Jan 4.4 14:09:44 10° NNW 14:12:59 17° WNW 14:16:13 10° W visible
30 Jan 4.4 11:52:51 10° NNE 11:57:33 36° E 12:02:12 10° SSE visible
30 Jan 3.6 13:32:00 10° N 13:36:29 33° WNW 13:40:58 10° SW visible
